Terug naar catalogus

FENGYUN 1C DEB

ActiefPO
NORAD 30090·DEBRIS·🇨🇳 China

Gelanceerd May 10, 1999 vanaf Taiyuan Satellite Launch Center

Loading…

Volgende Passages (komende 24 uur)

TLE

VersSource: Space-Track

Epoch: Sep 14, 2026, 19:38 UTC

1 30090U 99025QT  26257.81870007  .00000452  00000-0  19296-3 0  9991
2 30090  99.4108  97.8901 0057740  42.0351 331.4610 14.29544294 22137

Volg FENGYUN 1C DEB in realtime met AllMySat

Download on the App Store